カタログに戻る

ANIK F1

運用中通信GEO
NORAD 26624·PAYLOAD·🇨🇦 Canada

打ち上げ Nov 21, 2000 から Guiana Space Centre

Loading…

TLE

最新Source: Space-Track

元期: Sep 14, 2026, 08:34 UTC

1 26624U 00076A   26257.35749172 -.00000236  00000-0  00000-0 0  9995
2 26624   5.4216  73.6817 0010141 177.4464 211.8009  0.98960226 43956

AllMySatでANIK F1をリアルタイム追跡

Download on the App Store